Location: *
(40.7765°S, 106.5327°E)
Time: 04:49:45
(UTC+00:00)

Daily predictions for brighter satellites

Satellite Brightness Start Highest point End
(mag) Time Altitude Azimuth Time Altitude Azimuth Time Altitude Azimuth
NOAA 11 4.2 09:57:30 10° SSE 10:03:02 73° ENE 10:08:31 10° N
USA 215 3.8 09:57:20 10° E 10:03:26 42° SSE 10:09:33 10° SW
Cosmos 1331 Rocket 4.3 09:58:18 10° NNW 10:03:32 74° WSW 10:08:49 10° SSE
Cosmos 2058 3.6 10:01:28 10° NNW 10:05:38 61° W 10:09:50 10° S
Cosmos 1939 Rocket 3.8 10:04:15 10° SE 10:07:39 27° E 10:10:59 10° NNE
Cosmos 1697 Rocket 3.2 10:04:15 10° S 10:09:34 39° ESE 10:14:51 10° NE
Cosmos 1782 4.2 10:07:04 10° SSE 10:09:52 18° ESE 10:12:38 10° ENE
Cosmos 1606 4.0 10:10:12 10° SSW 10:14:00 46° W 10:17:43 10° NNW
Cosmos 1153 Rocket 4.5 10:07:47 10° S 10:14:01 65° E 10:20:08 10° NNE
Lacrosse 5 4.0 10:13:05 10° SSW 10:15:19 13° S 10:17:34 10° SSE
Cosmos 1605 Rocket 4.3 10:08:58 10° S 10:15:20 76° W 10:21:32 10° N
CZ-2C R/B 3.1 10:11:57 10° S 10:16:48 77° WSW 10:21:43 10° NNW
CZ-4B R/B 4.1 10:13:10 10° SSE 10:17:40 74° E 10:22:00 10° N
Lacrosse 4 Rocket 3.9 10:20:36 10° W 10:23:23 17° SW 10:26:13 10° S
CZ-4B R/B 4.1 10:22:23 10° SE 10:25:15 21° E 10:28:11 10° NE
COSMO-SKYMED 1 3.2 10:21:36 10° N 10:25:56 64° W 10:30:20 10° SSW
DMSP B5D2-2 4.1 10:24:26 10° NNE 10:29:44 89° ESE 10:35:03 10° SSW
COSMOS 2406 3.3 10:26:09 10° N 10:31:42 59° ENE 10:37:19 10° SSE
GPS 2-04 Rocket1 3.9 10:31:18 10° WNW 10:34:47 34° N 10:38:08 10° ENE
SL-16 R/B 4.1 10:35:14 10° SSE 10:36:25 11° SE 10:36:33 11° SE
Cosmos 724 4.4 10:34:56 10° NNW 10:41:03 85° ENE 10:47:19 10° SSE
Cosmos 2151 3.1 10:36:59 10° N 10:41:13 56° E 10:45:30 10° SSE
Cosmos 2173 Rocket 4.0 10:40:18 10° S 10:46:43 70° E 10:52:57 10° NNE
RESURS DK-1 3.5 10:43:41 10° S 10:47:04 23° SE 10:48:12 21° E
USA 306 4.0 10:44:22 10° SSW 10:48:00 27° SSE 10:49:35 21° ESE
Cosmos 1727 Rocket 4.5 10:42:18 10° NNW 10:48:30 65° W 10:54:46 10° S
Cosmos 2016 Rocket 4.2 10:42:32 10° S 10:48:33 46° ESE 10:54:33 10° NNE
Cosmos 968 Rocket 3.5 10:43:40 10° SSW 10:49:01 88° ESE 10:54:17 10° NNE
CZ-2C R/B 2.9 10:47:00 10° NNW 10:49:51 20° NNE 10:51:52 14° ENE
NOAA 12 4.1 10:45:35 10° SSE 10:50:59 83° ENE 10:56:17 10° NNW
CZ-4C R/B 3.5 10:48:47 10° NE 10:51:39 30° ESE 10:54:36 10° S
USA 307 4.1 10:48:05 10° SSW 10:51:39 25° SSE 10:52:58 22° SE
Meteor 2-3 Rocket 3.7 10:47:22 10° N 10:52:59 88° W 10:58:44 10° S
Cosmos 1833 Rocket 3.3 10:48:36 10° NW 10:54:09 56° WSW 10:59:47 10° SSE
CZ-2D R/B 3.8 10:52:03 18° SE 10:54:30 36° E 10:58:04 10° NNE
Landsat 5 3.5 10:52:05 10° NNE 10:56:34 77° ESE 11:01:01 10° S
H-2A R/B 2.1 10:52:06 10° SSE 10:56:58 49° E 11:01:44 10° N
Cosmos 2278 4.4 10:52:56 10° S 10:57:56 30° ESE 11:00:52 20° ENE
ADEOS 3.5 10:54:52 10° SSE 11:00:13 84° ENE 11:05:28 10° NNW
Cosmos 1802 Rocket 4.0 10:54:08 10° S 11:00:36 69° E 11:07:02 10° NNE
Cosmos 1812 2.7 11:02:22 10° S 11:06:13 58° E 11:10:00 10° NNE
Cosmos 1862 3.6 11:05:35 10° NNE 11:09:21 42° E 11:10:24 34° SE
Meteor PRIRODA 3.6 11:05:49 10° SSE 11:09:33 87° WSW 11:13:15 10° NNW
Cosmos 1459 Rocket 4.2 11:07:26 10° S 11:13:39 76° W 11:19:54 10° N
GEOS 3 Rocket 4.0 11:13:57 30° ESE 11:15:58 44° ENE 11:20:56 10° NNW
ATLAS 2AS CENTAUR R/B 3.2 11:09:00 10° SW 11:16:05 67° WNW 11:23:34 10° NNE
Meteor 1-26 Rocket 4.5 11:10:10 10° SSW 11:16:18 81° W 11:22:17 10° N
Meteor 2-6 Rocket 4.3 11:11:24 10° S 11:16:52 47° ESE 11:22:07 10° NNE
Cosmos 2100 Rocket 4.5 11:11:49 10° SSW 11:18:05 64° W 11:24:12 10° N
Aureole 1 Rocket 3.9 11:13:10 10° SSW 11:20:31 78° ESE 11:26:07 10° NNE
USA 308 3.5 11:18:34 10° SW 11:22:27 37° SSE 11:22:27 37° SSE
SJ 16-02 3.6 11:20:33 10° S 11:20:55 12° S 11:20:55 12° S
BREEZE-M DEB (TANK) 2.7 11:19:14 10° WSW 11:25:15 56° NW 11:26:30 31° NNE
GENESIS II 4.0 11:25:32 10° SW 11:29:17 84° WNW 11:30:10 50° NNE
SMAP 3.4 11:27:55 10° S 11:32:38 68° WSW 11:37:16 10° NNW
USA 281 3.2 11:26:28 10° SSE 11:33:10 88° WSW 11:39:48 10° NNW
NOAA 6 3.9 11:29:10 14° SSE 11:33:44 84° ENE 11:38:53 10° NNW
Cosmos 1980 Rocket 2.1 11:28:58 10° SSW 11:34:39 88° WNW 11:40:15 10° NNE
ARGOS 3.1 11:31:54 29° SSE 11:34:41 61° E 11:40:00 10° N
Cosmos 2061 Rocket 4.0 11:32:15 10° S 11:38:43 84° W 11:45:02 10° N
AQUARIUS 4.5 11:35:17 14° S 11:39:07 67° WSW 11:43:37 10° NNW
IRIDIUM 106 4.3 11:36:44 10° NNE 11:41:52 58° E 11:42:06 57° ESE
Cosmos 2322 Rocket 4.0 11:37:41 10° S 11:39:17 16° SSE 11:39:17 16° SSE
Cosmos 2082 Rocket 2.8 11:36:53 10° NW 11:42:24 54° WSW 11:46:36 18° S
Cosmos 2369 4.1 11:37:43 10° SSW 11:43:24 65° WNW 11:49:00 10° N
Cosmos 2123 Rocket 4.5 11:37:14 10° NNW 11:43:31 62° W 11:49:53 10° S
USA 305 3.3 11:41:37 10° SW 11:44:58 49° SSW 11:44:58 49° SSW
USA 215 3.5 11:39:37 10° NE 11:46:10 68° NW 11:52:47 10° SW
Cosmos 1725 Rocket 4.3 11:43:24 10° SSW 11:49:39 67° W 11:55:52 10° N
Cosmos 1354 Rocket 3.9 11:47:17 10° SSW 11:52:26 71° SE 11:52:26 71° SE
